Location: Newark
(31.5350°N, 35.0986°E)
Time: 20:57:30
(UTC+00:00)

Transit 2A - All Passes

Search period start: 19 October 2019 00:00
Search period end: 29 October 2019 00:00
Orbit: 600 x 958 km, 66.7° (Epoch: 19 October)

Date Brightness Start Highest point End Pass type
(mag) Time Alt. Az. Time Alt. Az. Time Alt. Az.
19 Oct - 02:54:42 10° NNW 02:58:59 66° WSW 03:03:22 10° SSE visible
19 Oct - 15:46:18 10° S 15:51:15 30° ESE 15:55:50 10° NE visible
19 Oct - 17:29:30 10° WSW 17:34:21 29° WNW 17:38:49 10° N visible
20 Oct - 02:20:35 10° NNW 02:24:54 73° ENE 02:29:19 10° SSE visible
20 Oct - 15:13:14 10° SSE 15:17:15 20° ESE 15:21:01 10° ENE daylight
20 Oct - 16:54:47 10° SW 17:00:10 44° WNW 17:05:05 10° N visible
21 Oct - 01:46:40 10° N 01:50:47 42° ENE 01:54:58 10° SE visible
21 Oct - 03:31:47 10° W 03:33:28 12° WSW 03:35:10 10° SW daylight
21 Oct - 14:41:05 10° SE 14:43:16 12° ESE 14:45:24 10° E daylight
21 Oct - 16:20:22 10° SSW 16:26:02 68° WNW 16:31:10 10° NNE visible
22 Oct - 01:12:56 10° N 01:16:36 26° ENE 01:20:18 10° ESE visible
22 Oct - 02:56:17 10° WNW 02:59:31 20° WSW 03:02:47 10° SSW visible
22 Oct - 15:46:13 10° SSW 15:51:56 80° ESE 15:57:06 10° NNE visible
22 Oct - 17:33:33 10° WNW 17:35:28 12° NW 17:37:21 10° NNW visible
23 Oct - 00:39:33 10° NNE 00:42:21 17° NE 00:45:11 10° E visible
23 Oct - 02:21:36 10° NW 02:25:31 34° WSW 02:29:32 10° S visible
23 Oct - 15:12:20 10° S 15:17:51 51° ESE 15:22:52 10° NE visible
23 Oct - 16:57:31 10° W 17:01:09 18° NW 17:04:36 10° NNW visible
24 Oct - 00:07:14 10° NE 00:08:02 10° NE 00:08:50 10° ENE night (unlit)
24 Oct - 01:47:14 10° NW 01:51:29 58° WSW 01:55:51 10° SSE visible
24 Oct - 14:38:46 10° S 14:43:48 33° ESE 14:48:26 10° NE daylight
24 Oct - 16:22:19 10° WSW 16:26:55 26° WNW 16:31:11 10° N visible
25 Oct - 01:13:04 10° NNW 01:17:24 81° ENE 01:21:52 10° SSE visible
25 Oct - 14:05:36 10° SSE 14:09:46 21° ESE 14:13:41 10° ENE daylight
25 Oct - 15:47:31 10° SW 15:52:44 40° WNW 15:57:30 10° N visible
26 Oct - 00:39:06 10° NNW 00:43:17 47° ENE 00:47:34 10° SE night (unlit)
26 Oct - 02:24:55 10° W 02:25:56 11° WSW 02:26:59 10° WSW visible
26 Oct - 13:33:11 10° SE 13:35:47 13° ESE 13:38:19 10° ENE daylight
26 Oct - 15:13:01 10° SW 15:18:35 61° WNW 15:23:37 10° NNE visible
27 Oct - 00:05:20 10° N 00:09:07 29° ENE 00:12:58 10° ESE night (unlit)
27 Oct - 01:48:58 10° WNW 01:51:59 18° WSW 01:55:05 10° SSW night (unlit)
27 Oct - 14:38:49 10° SSW 14:44:29 87° ESE 14:49:36 10° NNE daylight
27 Oct - 16:27:07 10° WNW 16:28:04 10° NW 16:29:01 10° NW visible
27 Oct - 23:31:51 10° NNE 23:34:53 18° ENE 23:37:58 10° E night (unlit)
28 Oct - 01:14:11 10° NW 01:18:00 30° WSW 01:21:56 10° S night (unlit)
28 Oct - 14:04:53 10° S 14:10:24 56° ESE 14:15:24 10° NE daylight
28 Oct - 15:50:28 10° W 15:53:44 16° NW 15:56:51 10° NNW visible
28 Oct - 22:59:03 10° NNE 23:00:36 12° NE 23:02:09 10° ENE night (unlit)
